Content
SEND FEEDBACK

Daily
Averages
Monthly
Summary
United States of America

LAKE LURE, NORTH CAROLINA


Home > North America > United States > North Carolina
Elevation: 105 feet     Latitude: 35 25N     Longitude: 082 14W

WEATHER
 
SELECT A DAY
Number of Records: 225,800;   Date Range: 1/1/95 - 7/28/14
 
SHARE

PRINT THIS DATA

[ ← Previous Day ]
WEATHER ALMANAC - JANUARY 23, 2013
[ Next Day → ]
[ °C ]   °F
Weather ElementAverageHighLow
Temperature31.1 °F45 °F (3:54 pm)21 °F (3:54 am)
Dewpoint12.4 °F21.9 °F (9:54 pm)1 °F (1:54 am)
Humidity47.5 %78 % (11:54 pm)34 % (3:54 pm)
Barometer30.21 in30.33 in (10:54 am)30.06 in (10:54 pm)
Wind Speed5.5 mph12.7 mph (9:54 am)
Weather ElementAverage
Visibility10 mi
Wind DirectionW (270 °)

Weather ElementTotal
Precipitation---
Heating Degree Days32 (Base 65)
Averaged from 23 records on January 23, 2013
WEATHER CONDITIONS BREAKOUT
WIND DIRECTION BREAKOUT
WEATHER BY HOUR - JANUARY 23, 2013
[ °C ]   °F
Local TimeTemperatureDewpointHumidityBarometerVisibilityWind DirectionWind SpeedGust SpeedPrecipitationEventsConditions
1:54 AM24.1 °F1.0 °F37 %30.25 in10.0 miNNW (330°)10.4 mphOvercast
2:54 AM21.9 °F1.9 °F42 %30.27 in10.0 miNW (320°)6.9 mphPartly Cloudy
3:54 AM21.0 °F1.9 °F44 %30.27 in10.0 miNW (320°)4.6 mphClear
4:54 AM23.0 °F3.9 °F44 %30.27 in10.0 miWest (270°)3.5 mphOvercast
5:54 AM24.1 °F5.0 °F44 %30.28 in10.0 miNNW (330°)6.9 mphOvercast
6:54 AM24.8 °F6.8 °F46 %30.23 in10.0 miWest (260°)4.6 mphOvercast
7:54 AM23.0 °F5.0 °F46 %30.31 in10.0 miNNW (340°)9.2 mphScattered Clouds
8:54 AM26.1 °F6.1 °F43 %30.31 in10.0 miNNW (340°)10.4 mphClear
9:54 AM30.0 °F8.1 °F40 %30.32 in10.0 miNNW (340°)12.7 mphClear
10:54 AM30.9 °F10.0 °F42 %30.33 in10.0 miNorth (360°)6.9 mphClear
11:54 AM35.1 °F10.9 °F37 %30.30 in10.0 miNorth (350°)6.9 mphClear
12:54 PM37.0 °F12.0 °F36 %30.24 in10.0 miNNW (340°)4.6 mphClear
1:54 PM39.9 °F15.1 °F36 %30.20 in10.0 miWNW (300°)3.5 mphClear
2:54 PM42.1 °F16.0 °F35 %30.18 in10.0 miNNW (340°)6.9 mphClear
3:54 PM45.0 °F18.0 °F34 %30.15 in10.0 miVariable3.5 mphClear
4:54 PM43.0 °F19.0 °F38 %30.14 in10.0 miNNW (330°)5.8 mphClear
5:54 PM39.0 °F19.0 °F45 %30.14 in10.0 miNNW (330°)5.8 mphClear
6:54 PM35.1 °F19.9 °F54 %30.15 in10.0 miNorth (350°)3.5 mphClear
7:54 PM33.1 °F21.0 °F61 %30.14 in10.0 miNW (320°)4.6 mphClear
8:54 PM33.1 °F21.0 °F61 %30.13 in10.0 miCalmClear
9:54 PM28.9 °F21.9 °F75 %30.11 in10.0 miCalmClear
10:54 PM28.4 °F21.2 °F74 %30.06 in10.0 miCalmClear
11:54 PM27.0 °F21.0 °F78 %30.08 in10.0 miNNW (340°)4.6 mphClear
Hourly data recorded from KAVL, located miles away from Lake Lure, North Carolina







STORIES FROM OUR PARTNERS